Terug naar catalogus

COSMOS 2146

ActiefNavigatiePO
NORAD 21302·PAYLOAD·🇷🇺 Russia

Gelanceerd May 16, 1991 vanaf Plesetsk Cosmodrome

Loading…

Volgende Passages (komende 24 uur)

TLE

VersSource: Space-Track

Epoch: Sep 14, 2026, 22:16 UTC

1 21302U 91033D   26257.92821689  .00000003  00000-0 -43495-4 0  9994
2 21302  82.5721 236.8437 0015839 180.7343 179.3729 12.64555170630665

Volg COSMOS 2146 in realtime met AllMySat

Download on the App Store